Regional Weather Roundup
Issued by NWS Little Rock, AR

Home | Current Version | Previous Version | Text Only | Print | Product List | Glossary Off
Versions: 1 2 3 4 5 6 7 8 9 10 11 12 13 14 15 16 17 18 19 20 21 22 23 24 25 26 27 28 29 30 31 32 33

000
ASUS44 KLZK 201505
RWRLZK

WEATHER ROUNDUP FOR ARKANSAS
NATIONAL WEATHER SERVICE LITTLE ROCK AR
1000 AM CDT WED SEP 20 2017

NOTE: "FAIR" INDICATES FEW OR NO CLOUDS BELOW 12,000 FEET WITH NO
SIGNIFICANT WEATHER AND/OR OBSTRUCTIONS TO VISIBILITY.

ARZ001-003-010-029-201600-
NORTHWEST ARKANSAS

CITY           SKY/WX    TMP DP  RH WIND       PRES   REMARKS
FAYETTEVILLE   SUNNY     81  75  82 S17G23    29.93R HX  87
FORT SMITH     MOSUNNY   86  74  67 S8        29.91R HX  94
HARRISON       SUNNY     84  71  65 S8        29.95S HX  89
BENTONVILLE    SUNNY     81  73  76 S12G21    29.94R HX  86
ROGERS         MOSUNNY   82  73  74 S16       29.93S HX  87
SILOAM SPGS    MOSUNNY   82  73  74 S16       29.92R HX  87
HIGHFILL       MOSUNNY   81  73  76 S10       29.92S HX  86
SPRINGDALE     SUNNY     81  73  78 S15G24    29.94S HX  85
$$

ARZ004-005-016-201600-
NORTH CENTRAL ARKANSAS

CITY           SKY/WX    TMP DP  RH WIND       PRES   REMARKS
BATESVILLE     SUNNY    N/A N/A N/A SW6       29.97R
FLIPPIN        SUNNY     82  73  74 SW3       29.94R HX  87
MTN HOME       SUNNY     81  73  76 S7        29.94R HX  86
$$

ARZ040-041-201600-
WEST CENTRAL ARKANSAS

CITY           SKY/WX    TMP DP  RH WIND       PRES   REMARKS
MENA           MOSUNNY   82  77  83 SW7       29.98R HX  91
MOUNT IDA      PTSUNNY   82  71  69 S5        29.95S HX  86
$$

ARZ009-017-025-026-028-201600-
NORTHEAST ARKANSAS

CITY           SKY/WX    TMP DP  RH WIND       PRES   REMARKS
JONESBORO      SUNNY     83  76  79 SW10      29.98R HX  91
NEWPORT        SUNNY     82  74  76 S14       29.97S HX  88
BLYTHEVILLE    SUNNY     83  75  77 S9        30.00R HX  90
NW BLYTHEVILLE MOSUNNY   84  73  70 S9        29.99R HX  91
$$

ARZ022-023-033-042-044-201600-
CENTRAL ARKANSAS

CITY           SKY/WX    TMP DP  RH WIND       PRES   REMARKS
LITTLE ROCK    PTSUNNY   81  75  82 W14G25    29.98R HX  87
N LITTLE ROCK    N/A     80  74  82 SW6       29.98R
JACKSONVILLE   MOSUNNY   85  74  71 SW13      29.97R HX  92
CONWAY           N/A     84  75  74 SW12      29.94S HX  92
SEARCY         SUNNY     82  75  79 SW9       29.99R HX  89
HOT SPRINGS    PTSUNNY   83  74  74 SW10      29.97S HX  89
RUSSELLVILLE   MOSUNNY   82  74  76 S7        29.94S HX  88
CLINTON        FAIR      82  75  78 W8        29.95S HAZE    HX  89
$$

ARZ036-201600-
EAST ARKANSAS

CITY           SKY/WX    TMP DP  RH WIND       PRES   REMARKS
WEST MEMPHIS   SUNNY     83  76  79 VRB6      29.99R HX  91
$$

ARZ050-053-066-070-073-201600-
SOUTHWEST ARKANSAS

CITY           SKY/WX    TMP DP  RH WIND       PRES   REMARKS
ARKADELPHIA    CLOUDY    79  76  90 VRB6      29.98S
CAMDEN         CLOUDY    84  73  70 S8        29.98R HX  91
TEXARKANA      CLOUDY    80  75  84 S9        29.97R HX  85
EL DORADO      CLOUDY    79  74  84 SW10      30.00R
DE QUEEN       MOSUNNY   81  76  84 S9        29.94R HX  87
$$

ARZ056-057-069-201600-
SOUTHEAST ARKANSAS

CITY           SKY/WX    TMP DP  RH WIND       PRES   REMARKS
PINE BLUFF     PTSUNNY   82  73  74 SW9       29.99R HX  87
STUTTGART      PTSUNNY   83  74  74 SW13      29.99R HX  89
MONTICELLO     CLOUDY    79  73  82 SW7       30.01R

$$






USA.gov is the U.S. government's official web portal to all federal, state and local government web resources and services.